[[{"header":{"parameterUnit":"m.s-1","parameterCategory":1,"la1":30.2991,"la2":30.254,"lo1":-89.0895,"lo2":-89.0444,"dy":0.0017,"dx":0.0017,"nx":28,"ny":28,"refTime":"2024-07-16T21:00:00:Z","depth":0,"parameterNumber":2,"parameterNumberName":"U-component_of_WINDS"},"data":[0,0,0,0,0,0,0,0,0,0,0,0,0,0,0,0,0,0,0,0,0,0,0,0,0,0,0,0,0,0,0,0,0,0,0,0,0,0,0,0,0,0,0,0,0,0,0,0,0,0,0,0,0,0,0,0,0,0,2.4629,2.463,0,2.4705,2.4706,2.4707,2.4693,2.4691,2.469,2.4689,2.4769,2.4773,2.4776,0,0,0,0,0,0,0,0,0,0,0,0,0,2.4472,2.4475,2.4629,2.463,2.4631,2.4705,2.4706,2.4707,2.4693,2.4691,2.469,2.4688,2.4768,2.4772,2.4776,0,0,0,0,0,0,0,0,0,0,0,0,0,2.4544,2.4476,2.4629,2.4633,2.4634,2.4705,2.4706,2.4707,2.4693,2.4691,2.4689,2.4687,2.4767,2.4772,2.4777,2.485,0,0,2.4793,2.4795,0,0,0,0,0,0,0,0,2.454,2.455,2.4631,2.4632,2.4634,2.4687,2.468,2.4755,2.4694,2.4671,2.4689,2.4686,2.4744,2.4751,2.477,2.4854,2.4857,2.4793,2.4796,2.4798,2.48,0,0,0,0,0,0,0,2.4535,2.4546,2.4659,2.4632,2.4634,2.4631,2.4639,2.4695,2.4718,2.4673,2.4672,2.4681,2.4744,2.4765,2.4771,2.4858,2.4793,2.4798,2.4801,2.4803,2.5005,2.5007,0,0,0,0,0,0,2.4528,2.4542,2.4657,2.4661,2.4581,2.4635,2.4644,2.4672,2.4717,2.4722,2.4683,2.468,2.4757,2.4766,2.4774,2.4862,2.4798,2.4803,2.4806,2.5003,2.5005,2.5008,0,0,0,0,0,0,2.4525,2.4539,2.4654,2.4602,2.4616,2.464,2.4672,2.4675,2.4695,2.4725,2.4729,2.4699,2.4756,2.4767,2.4831,2.4865,2.4806,2.481,2.5,2.5003,2.5007,2.5038,0,0,0,0,0,0,2.4521,2.4538,2.4565,2.4602,2.4619,2.4708,2.4674,2.4678,2.4704,2.4701,2.4741,2.4746,2.4755,2.4823,2.4836,2.4871,2.4814,2.4997,2.5002,2.5006,2.5035,2.5043,2.5049,0,0,0,0,0,2.4515,2.4572,2.4567,2.4581,2.4654,2.471,2.472,2.4728,2.4707,2.4735,2.4754,2.4745,2.4859,2.483,2.4844,2.4881,2.4995,2.5,2.5005,2.5031,2.5041,2.5049,0,0,0,0,0,0,2.4539,2.4577,2.4571,2.4642,2.4673,2.4708,2.4744,2.4738,2.4777,2.4773,2.4782,2.4791,2.4856,2.4875,2.4842,2.4953,2.4924,2.4932,2.4939,2.4948,2.4956,2.495,2.4819,0,0,0,0,0,2.4552,2.4595,2.4625,2.4685,2.47,2.4719,2.4744,2.4748,2.4781,2.4794,2.4818,2.4851,2.4894,2.4922,2.4963,2.5037,2.5045,2.5069,2.5077,2.5083,2.509,2.513,2.5141,2.5025,2.5025,2.5025,0,0,2.4581,2.4606,2.4633,2.469,2.4715,2.4759,2.4731,2.4779,2.4811,2.4802,2.4863,2.4881,2.4919,2.4987,2.5019,2.5005,2.5124,2.5089,2.5094,2.5098,2.5136,2.5147,2.5157,2.5028,2.5028,2.5027,0,0,2.4655,2.4678,2.473,2.4755,2.4792,2.4804,2.4816,2.4852,2.4863,2.4925,2.4918,2.4958,2.5032,2.5058,2.5082,2.5165,2.5158,2.5178,2.5217,2.5256,2.5265,2.5273,2.5303,2.5313,2.5185,2.5185,2.5185,0,2.4685,2.4751,2.4757,2.4806,2.4831,2.4823,2.4875,2.4899,2.4949,2.4966,2.495,2.5042,2.5067,2.5141,2.5161,2.5181,2.5195,2.5174,2.5263,2.5271,2.5279,2.5307,2.5319,2.5187,2.5187,2.5187,2.5186,0,2.4787,2.4832,2.487,2.4916,2.4945,2.4996,2.501,2.5039,2.504,2.5054,2.5116,2.5145,2.5192,2.521,2.5212,2.5285,2.5275,2.5261,2.5232,2.5292,2.5319,2.533,2.519,2.5189,2.5189,2.5188,0,0,2.4879,2.4927,2.4941,2.4962,2.5002,2.5037,2.5087,2.5132,2.5156,2.519,2.5232,2.5295,2.5281,2.5308,2.5312,2.5346,2.541,2.5328,2.5329,2.5342,2.5492,2.5503,2.5515,2.5405,2.5407,2.5409,2.5489,0,2.4957,2.5044,2.5051,2.5129,2.5171,2.5164,2.5207,2.5237,2.5251,2.5289,2.5304,2.5348,2.5328,2.5343,2.5377,2.5395,2.544,2.5389,2.5445,2.5447,2.5436,2.5529,2.5541,2.5615,2.55,2.5501,2.5503,0,2.5059,2.5095,2.5178,2.5211,2.5229,2.5268,2.5309,2.5345,2.5378,2.5386,2.5415,2.5414,2.5466,2.5434,2.5505,2.547,2.5493,2.5506,2.5509,2.5515,2.5479,2.5538,2.5639,2.565,2.5519,2.5518,2.5517,0,2.5118,2.5187,2.5245,2.5263,2.5304,2.5331,2.5349,2.538,2.5406,2.5442,2.546,2.5502,2.5525,2.5557,2.5568,2.5544,2.5639,2.5608,2.5647,2.5647,2.5668,2.5667,2.5774,2.5682,2.5682,2.5682,2.5682,0,2.5205,2.5255,2.5272,2.5308,2.5365,2.5372,2.5428,2.5445,2.5472,2.5511,2.5508,2.5545,2.5557,2.5596,2.5605,2.5662,2.5672,2.568,2.5682,2.5681,2.568,2.5697,2.5692,2.5685,2.5684,2.5684,2.5683,0,2.528,2.5294,2.5357,2.5389,2.5398,2.5439,2.5467,2.5501,2.5514,2.5564,2.5576,2.5597,2.5642,2.5656,2.5711,2.5717,2.5785,2.5782,2.5773,2.5773,2.5812,2.5808,2.5934,2.5951,2.5848,2.5849,2.585,0,2.5335,2.5374,2.541,2.5435,2.5454,2.5496,2.5522,2.5531,2.5558,2.5598,2.5628,2.5673,2.571,2.5783,2.5803,2.5845,2.5844,2.5885,2.585,2.5847,2.5844,2.5842,2.5846,2.5892,2.5893,2.5894,2.5894,0,2.543,2.5434,2.5472,2.5512,2.5544,2.5576,2.5607,2.5628,2.5641,2.5673,2.5719,2.5747,2.5803,2.5847,2.589,2.5909,2.5904,2.5905,2.5916,2.5916,2.5909,2.5913,2.5791,2.5902,2.5901,2.5901,2.59,2.59,2.5497,2.5531,2.5561,2.5604,2.5628,2.5656,2.569,2.5707,2.5745,2.5791,2.5794,2.5844,2.5875,2.5932,2.5953,2.5992,2.598,2.5997,2.6001,2.6005,2.6008,2.5902,2.6,2.6,2.6,2.5999,2.5999,0,2.5592,2.5611,2.565,2.5693,2.5726,2.5717,2.5751,2.5779,2.5823,2.5852,2.5888,2.5941,2.5984,2.6007,2.605,2.6077,2.6076,2.6088,2.6086,2.6091,2.6016,2.6002,2.6088,2.6088,2.6088,2.6088,2.6088,2.6088,2.5645,2.5702,2.571,2.5779,2.5797,2.5846,2.5866,2.5892,2.5916,2.5975,2.601,2.6024,2.6051,2.6096,2.6135,2.6141,2.6157,2.617,2.6175,2.6105,2.6096,2.6087,2.6074,2.6174,2.6174,2.6246,2.6247,2.6247]},{"header":{"parameterUnit":"m.s-1","parameterCategory":1,"la1":30.2991,"la2":30.254,"lo1":-89.0895,"lo2":-89.0444,"dy":0.0017,"dx":0.0017,"nx":28,"ny":28,"refTime":"2024-07-16T21:00:00:Z","depth":0,"parameterNumber":3,"parameterNumberName":"V-component_of_WINDS"},"data":[0,0,0,0,0,0,0,0,0,0,0,0,0,0,0,0,0,0,0,0,0,0,0,0,0,0,0,0,0,0,0,0,0,0,0,0,0,0,0,0,0,0,0,0,0,0,0,0,0,0,0,0,0,0,0,0,0,0,4.4597,4.4596,0,4.4461,4.446,4.4458,4.4399,4.44,4.44,4.44,4.4252,4.4248,4.4244,0,0,0,0,0,0,0,0,0,0,0,0,0,4.4796,4.4793,4.4597,4.4596,4.4594,4.4462,4.446,4.4458,4.4399,4.44,4.44,4.44,4.4254,4.4249,4.4244,0,0,0,0,0,0,0,0,0,0,0,0,0,4.469,4.4792,4.4598,4.4549,4.4543,4.4462,4.446,4.4457,4.4399,4.44,4.44,4.44,4.4255,4.4249,4.4243,4.4197,0,0,4.4224,4.4221,0,0,0,0,0,0,0,0,4.4696,4.4683,4.4558,4.4552,4.4546,4.4448,4.4476,4.437,4.4399,4.4454,4.44,4.4401,4.4316,4.4305,4.4279,4.419,4.4184,4.4223,4.422,4.4217,4.4215,0,0,0,0,0,0,0,4.4704,4.4688,4.4543,4.4556,4.4549,4.4531,4.4516,4.4455,4.4384,4.4449,4.4444,4.443,4.4313,4.4285,4.4275,4.4182,4.4224,4.4218,4.4214,4.4212,4.4047,4.4046,0,0,0,0,0,0,4.472,4.4695,4.4548,4.4539,4.4624,4.4527,4.4511,4.4479,4.4385,4.4371,4.4429,4.4427,4.4295,4.4282,4.4269,4.4208,4.4217,4.4211,4.4207,4.4047,4.4047,4.4046,0,0,0,0,0,0,4.4725,4.4708,4.4553,4.4616,4.4595,4.4523,4.4488,4.4476,4.4448,4.437,4.4356,4.4414,4.4295,4.4278,4.4216,4.4203,4.4208,4.4203,4.4048,4.4047,4.4046,4.4088,0,0,0,0,0,0,4.4731,4.471,4.4694,4.4616,4.4592,4.4505,4.4487,4.4473,4.4438,4.4434,4.4352,4.4339,4.4294,4.4225,4.421,4.4194,4.4198,4.4049,4.4048,4.4047,4.4087,4.4088,4.4089,0,0,0,0,0,4.4738,4.4709,4.4694,4.4676,4.4571,4.4504,4.449,4.4441,4.4437,4.4419,4.4369,4.4342,4.4207,4.422,4.4201,4.4184,4.4049,4.4048,4.4047,4.4087,4.4088,4.4089,0,0,0,0,0,0,4.4785,4.4698,4.468,4.4626,4.4573,4.4495,4.4471,4.4445,4.439,4.4388,4.4327,4.4309,4.4252,4.4211,4.4227,4.4133,4.4125,4.412,4.4162,4.4163,4.4164,4.4174,4.4193,0,0,0,0,0,4.479,4.4746,4.4671,4.463,4.4605,4.4543,4.4512,4.4479,4.4421,4.4397,4.4343,4.4285,4.4229,4.4194,4.4138,4.4081,4.4061,4.4059,4.4061,4.4062,4.4058,4.4022,4.4021,4.4041,4.4041,4.4041,0,0,4.4797,4.4745,4.472,4.4638,4.4594,4.4547,4.4524,4.4475,4.4439,4.4389,4.4328,4.4285,4.4216,4.4156,4.4127,4.4121,4.4048,4.406,4.4062,4.4057,4.4021,4.4019,4.4017,4.404,4.404,4.4041,0,0,4.4788,4.4745,4.4706,4.4662,4.4596,4.4554,4.4545,4.447,4.4441,4.4379,4.434,4.4294,4.42,4.4152,4.4115,4.4087,4.4058,4.407,4.4075,4.4042,4.404,4.4038,4.4027,4.4023,4.4066,4.4066,4.4066,0,4.4806,4.4736,4.4688,4.4642,4.4606,4.4561,4.4519,4.4478,4.4395,4.437,4.4365,4.4246,4.4196,4.4123,4.4117,4.4089,4.4074,4.4079,4.4045,4.4042,4.404,4.4028,4.4024,4.4068,4.4068,4.4068,4.4068,0,4.476,4.4713,4.4688,4.4613,4.4574,4.453,4.4473,4.4438,4.4408,4.4367,4.4302,4.4241,4.4172,4.4152,4.4122,4.4075,4.4073,4.4057,4.4048,4.4041,4.4028,4.4024,4.4071,4.407,4.407,4.4069,0,0,4.4777,4.4676,4.4668,4.4633,4.4556,4.4516,4.4469,4.4404,4.4375,4.4319,4.4276,4.4198,4.4183,4.4141,4.4104,4.4075,4.4054,4.4062,4.4059,4.4062,4.3997,4.4009,4.4005,4.4035,4.4034,4.4034,4.4002,0,4.4756,4.4674,4.4628,4.4563,4.4517,4.4473,4.4431,4.4377,4.4337,4.4289,4.4242,4.4187,4.4172,4.4146,4.4115,4.4064,4.404,4.4065,4.3992,4.399,4.4011,4.3998,4.4011,4.3985,4.3997,4.3996,4.3996,0,4.4722,4.467,4.4601,4.4529,4.4507,4.4471,4.4408,4.4364,4.4301,4.4272,4.4226,4.419,4.4135,4.4131,4.4052,4.4071,4.4037,4.4007,4.4005,4.3996,4.3992,4.3988,4.3975,4.3971,4.3988,4.3988,4.3989,0,4.474,4.4652,4.4599,4.4571,4.4485,4.446,4.4423,4.4361,4.4324,4.4267,4.4242,4.4179,4.4144,4.4094,4.404,4.4042,4.3966,4.3958,4.3939,4.3941,4.3925,4.3927,4.3906,4.3905,4.3905,4.3905,4.3906,0,4.4722,4.4681,4.4607,4.4574,4.4526,4.4472,4.4425,4.4384,4.4329,4.4285,4.4241,4.42,4.4132,4.4082,4.4039,4.398,4.3964,4.3938,4.3927,4.3942,4.3945,4.3919,4.3919,4.3904,4.3904,4.3905,4.3905,0,4.4734,4.4683,4.4622,4.4547,4.4526,4.4494,4.4428,4.4392,4.4349,4.4294,4.4278,4.4209,4.4147,4.4089,4.4006,4.3977,4.3917,4.3903,4.394,4.3933,4.3918,4.392,4.3879,4.387,4.3877,4.3877,4.3877,0,4.4726,4.4694,4.4615,4.4584,4.4549,4.4499,4.4462,4.4407,4.437,4.4295,4.4268,4.4204,4.415,4.4053,4.3993,4.3929,4.3912,4.3902,4.3902,4.3918,4.3911,4.3913,4.3909,4.3903,4.3904,4.3904,4.3904,0,4.4716,4.4692,4.4643,4.4584,4.4542,4.4491,4.444,4.4416,4.435,4.431,4.4248,4.4206,4.4122,4.4058,4.3986,4.3944,4.3912,4.3905,4.3897,4.3911,4.3933,4.392,4.3942,4.3906,4.3906,4.3905,4.3905,4.3905,4.4717,4.4686,4.4626,4.4571,4.4527,4.448,4.4443,4.4396,4.4344,4.4274,4.4243,4.418,4.4115,4.4017,4.3975,4.3922,4.3915,4.3904,4.3901,4.3899,4.3901,4.3943,4.3909,4.3909,4.3908,4.3908,4.3908,0,4.4704,4.4664,4.4614,4.4544,4.4501,4.4478,4.4418,4.4382,4.4329,4.4272,4.4221,4.4148,4.4085,4.4021,4.3954,4.3924,4.3907,4.3908,4.3909,4.3899,4.3912,4.3925,4.3922,4.3922,4.3922,4.3922,4.3922,4.3922,4.4693,4.4639,4.4608,4.4531,4.4489,4.4429,4.4397,4.4352,4.4307,4.4229,4.4178,4.4137,4.4077,4.4005,4.3945,4.3927,4.3904,4.3908,4.3887,4.3899,4.3899,4.3898,4.391,4.3904,4.3904,4.3878,4.3878,4.3878]}]]